Stations météo

réclame
Mon MeteoGroup
Cap Corse, France (7785): Température de l'air & dewpoint: 10.08.2018 21:00:00 - 16.08.2018 21:00:00 (CEST)Cap Corse, France (7785): Vitesse du vent & gusts: 10.08.2018 21:00:00 - 16.08.2018 21:00:00 (CEST)Cap Corse, France (7785): Direction du vent: 10.08.2018 21:00:00 - 16.08.2018 21:00:00 (CEST)Cap Corse, France (7785): reduced air pressure: 10.08.2018 21:00:00 - 16.08.2018 21:00:00 (CEST)Cap Corse, France (7785): visibility: 10.08.2018 21:00:00 - 16.08.2018 21:00:00 (CEST)Cap Corse, France (7785): Quantités de précipitations: 10.08.2018 21:00:00 - 16.08.2018 21:00:00 (CEST)
Date & Time tt [°C] td [°C] ff [km/h] ff [knt] fx [km/h] fx [knt] dd ppp [hPa] vv [km] rr [mm]
16.08.2018 21:00:00 24,9 17,4 7 4 16 8 NW 1013,7 - 0,0
16.08.2018 20:00:00 27,1 16,7 7 4 18 10 WNW 1013,4 20 0,0
16.08.2018 19:00:00 28,3 17,8 11 6 19 11 WNW 1013,6 - 0,0
16.08.2018 18:00:00 28,3 17,5 11 6 19 11 NW 1013,7 - 0,0
16.08.2018 17:00:00 28,7 18,8 10 5 18 10 N 1013,9 20 0,0
16.08.2018 16:00:00 29,0 18,1 10 5 16 9 NNE 1014,5 - 0,0
16.08.2018 15:00:00 29,0 18,7 11 6 18 10 NNE 1014,8 - 0,0
16.08.2018 14:00:00 29,0 19,0 10 5 20 11 NE 1015,2 20 0,0
16.08.2018 13:00:00 29,0 20,2 10 5 24 13 ENE 1015,6 - 0,0
16.08.2018 12:00:00 29,0 18,1 16 9 32 18 E 1015,6 - 0,0
16.08.2018 11:00:00 28,7 15,9 25 14 46 25 E 1015,7 20 0,0
16.08.2018 10:00:00 28,1 15,0 31 17 46 25 E 1015,5 - 0,0
16.08.2018 09:00:00 27,9 15,2 29 16 41 22 E 1015,1 - 0,0
16.08.2018 08:00:00 27,3 15,6 27 15 44 24 E 1015,1 20 0,0
16.08.2018 07:00:00 25,5 15,2 19 11 33 18 E 1015,2 - 0,0
16.08.2018 06:00:00 24,8 14,9 16 9 30 16 E 1015,3 - 0,0
16.08.2018 05:00:00 24,9 15,0 19 10 35 19 E 1015,3 18 0,0
16.08.2018 04:00:00 25,0 14,5 21 11 34 19 E 1015,5 - 0,0
16.08.2018 03:00:00 25,1 16,5 19 10 28 15 E 1015,6 - 0,0
16.08.2018 02:00:00 25,3 16,7 17 9 26 14 E 1015,7 - 0,0
16.08.2018 01:00:00 25,6 15,6 16 8 24 13 E 1015,8 - 0,0
16.08.2018 00:00:00 25,7 16,5 10 5 16 9 E 1015,7 - 0,0
15.08.2018 23:00:00 25,0 15,0 8 5 12 6 E 1015,6 - 0,0
15.08.2018 22:00:00 24,4 16,1 3 2 12 6 NNE 1015,5 - 0,0
15.08.2018 21:00:00 25,3 16,4 9 5 17 9 ENE 1014,8 - 0,0
15.08.2018 20:00:00 26,6 16,2 12 7 20 11 ENE 1014,7 - 0,0
15.08.2018 19:00:00 27,1 17,3 13 7 23 13 N 1014,4 - 0,0
15.08.2018 18:00:00 27,8 17,0 16 9 22 12 NNE 1014,5 - 0,0
15.08.2018 17:00:00 28,2 16,5 15 8 22 12 NNE 1014,7 25 0,0
15.08.2018 16:00:00 28,4 17,3 16 9 22 12 NE 1014,8 - 0,0
15.08.2018 15:00:00 28,1 17,0 14 8 22 12 NE 1015,0 - 0,0
15.08.2018 14:00:00 28,2 17,7 11 6 18 10 NE 1015,0 25 0,0
15.08.2018 13:00:00 28,3 18,1 13 7 21 11 ENE 1015,0 - 0,0
15.08.2018 12:00:00 26,0 18,4 8 4 14 8 ENE 1015,1 - 0,0
15.08.2018 11:00:00 26,4 18,5 10 6 19 10 W 1014,7 25 0,0
15.08.2018 10:00:00 27,7 17,8 10 6 21 11 E 1014,2 - 0,0
15.08.2018 09:00:00 26,5 18,1 7 4 24 13 ESE 1014,0 - 0,0
15.08.2018 08:00:00 25,0 19,1 12 6 30 16 S 1013,8 16 0,2
15.08.2018 07:00:00 24,2 17,9 20 11 49 26 SE 1013,0 - 0,0
15.08.2018 06:00:00 24,8 19,2 18 10 28 15 NE 1012,8 - 0,0
15.08.2018 05:00:00 24,4 19,0 15 8 29 16 W 1012,9 16 0,0
15.08.2018 04:00:00 24,3 18,2 19 10 33 18 W 1012,8 - 0,0
15.08.2018 03:00:00 24,2 18,2 23 12 34 19 W 1012,6 - 0,0
15.08.2018 02:00:00 24,4 18,8 21 12 40 22 W 1012,9 - 0,0
15.08.2018 01:00:00 24,7 18,4 34 18 - - W 1012,9 - 0,0
15.08.2018 00:00:00 24,8 18,0 40 22 66 36 W 1012,0 - 0,0
14.08.2018 23:00:00 24,7 17,7 38 21 59 32 W 1011,9 - 0,0
14.08.2018 22:00:00 24,7 17,2 38 20 68 37 W 1011,7 - 0,0
14.08.2018 21:00:00 24,8 18,0 46 25 70 38 W 1010,6 - 0,0
14.08.2018 20:00:00 25,1 18,8 50 27 75 40 W 1011,0 10 0,0
14.08.2018 19:00:00 26,0 19,2 52 28 79 43 W 1010,6 - 0,0
14.08.2018 18:00:00 26,9 19,0 49 26 69 37 W 1010,8 - 0,0
14.08.2018 17:00:00 28,0 19,5 50 27 69 37 W 1010,6 10 0,0
14.08.2018 16:00:00 29,0 18,5 31 17 65 35 W 1011,1 - 0,0
14.08.2018 15:00:00 28,7 18,8 41 22 62 33 W 1010,7 - 0,0
14.08.2018 14:00:00 29,1 17,0 18 10 36 20 WSW 1011,9 - -
14.08.2018 13:00:00 27,7 18,1 14 7 44 24 W 1012,3 - 0,0
14.08.2018 12:00:00 29,1 18,5 19 10 45 25 W 1012,1 - 0,0
14.08.2018 11:00:00 28,0 19,0 11 6 46 25 WSW 1012,2 10 0,0
14.08.2018 10:00:00 22,3 19,1 37 20 50 27 SE 1012,9 - 0,0
14.08.2018 09:00:00 22,8 18,6 25 13 50 27 E 1012,9 - -
14.08.2018 08:00:00 23,8 19,3 28 15 39 21 SE 1012,3 10 -
14.08.2018 07:00:00 25,4 18,3 10 5 28 15 SSW 1011,8 - 0,0
14.08.2018 06:00:00 25,2 18,6 13 7 33 18 SW 1011,5 - 0,0
14.08.2018 05:00:00 24,6 18,5 16 9 - - SSW 1011,3 10 0,0
14.08.2018 04:00:00 24,9 19,0 27 14 53 28 SW 1011,7 - 0,0
14.08.2018 03:00:00 24,9 18,8 32 17 59 32 SW 1011,4 - 0,0
14.08.2018 02:00:00 25,0 18,0 28 15 47 25 SW 1011,7 - 0,0
14.08.2018 01:00:00 25,0 17,7 22 12 41 22 SW 1012,1 - 0,0
14.08.2018 00:00:00 25,1 17,0 21 11 34 18 SW 1012,4 - 0,0
13.08.2018 23:00:00 25,2 17,1 13 7 22 12 WSW 1012,9 - 0,0
13.08.2018 22:00:00 24,7 15,6 10 5 19 10 SW 1012,8 - 0,0
13.08.2018 21:00:00 24,7 15,3 6 3 15 8 W 1012,6 - 0,0
13.08.2018 20:00:00 26,5 15,5 9 5 13 7 W 1012,1 - 0,0
13.08.2018 19:00:00 26,1 17,7 3 2 14 8 NNE 1012,3 - 0,0
13.08.2018 18:00:00 27,0 17,5 6 4 16 8 NNE 1012,7 - 0,0
13.08.2018 17:00:00 27,9 18,0 13 7 22 12 W 1013,0 18 0,0
13.08.2018 16:00:00 27,3 18,0 14 8 21 11 W 1013,5 - 0,0
13.08.2018 15:00:00 27,6 17,7 16 9 22 12 W 1013,9 - 0,0
13.08.2018 14:00:00 28,5 18,3 20 11 62 33 W 1014,8 18 0,0
13.08.2018 13:00:00 27,2 19,5 45 25 63 34 W 1015,0 - 0,0
13.08.2018 12:00:00 29,0 20,7 29 15 36 19 W 1015,6 - 0,0
13.08.2018 11:00:00 28,5 20,8 16 9 21 11 W 1014,5 18 0,0
13.08.2018 10:00:00 27,6 21,2 15 8 18 10 W 1014,4 - 0,0
13.08.2018 09:00:00 26,9 20,5 5 3 18 10 W 1014,0 - 0,0
13.08.2018 08:00:00 26,1 18,8 4 2 17 9 NE 1014,2 - 0,0
13.08.2018 07:00:00 23,8 17,1 8 4 15 8 E 1014,1 - 0,0
13.08.2018 06:00:00 23,0 19,0 16 9 19 11 SW 1014,2 - 0,0
13.08.2018 05:00:00 22,8 20,0 13 7 20 11 S 1014,7 15 0,0
13.08.2018 04:00:00 23,7 19,6 7 4 35 19 SW 1014,8 - 0,0
13.08.2018 03:00:00 24,6 20,3 23 12 42 23 WSW 1014,4 - 0,0
13.08.2018 02:00:00 24,8 20,5 27 15 59 32 W 1015,0 - 0,0
13.08.2018 01:00:00 25,0 20,5 35 19 57 31 WSW 1015,2 - 0,0
13.08.2018 00:00:00 25,1 20,6 26 14 49 26 WSW 1015,8 - 0,0
12.08.2018 23:00:00 25,1 20,6 28 15 44 24 WSW 1015,7 - 0,0
12.08.2018 22:00:00 25,2 20,2 18 10 41 22 WSW 1015,6 - 0,0
12.08.2018 21:00:00 25,7 19,8 14 8 24 13 W 1015,5 - 0,0
12.08.2018 20:00:00 26,9 19,0 12 6 30 16 W 1015,3 20 0,0
12.08.2018 19:00:00 28,2 20,0 19 10 38 21 W 1015,4 - 0,0
12.08.2018 18:00:00 28,1 19,9 24 13 34 18 W 1015,7 - 0,0
12.08.2018 17:00:00 28,9 19,8 20 11 29 16 W 1016,3 20 0,0
12.08.2018 16:00:00 29,4 19,1 16 9 22 12 W 1016,9 - 0,0
12.08.2018 15:00:00 29,7 17,8 9 5 19 10 W 1017,5 - 0,0
12.08.2018 14:00:00 30,1 18,8 10 6 17 9 NW 1017,6 20 0,0
12.08.2018 13:00:00 29,3 19,0 10 5 17 9 NNW 1018,0 - 0,0
12.08.2018 12:00:00 29,8 19,2 9 5 17 9 WNW 1018,1 - 0,0
12.08.2018 11:00:00 28,5 17,7 7 4 17 9 WNW 1018,0 20 0,0
12.08.2018 10:00:00 27,7 19,0 13 7 21 12 W 1017,7 - 0,0
12.08.2018 09:00:00 27,0 20,1 11 6 22 12 W 1017,6 - 0,0
12.08.2018 08:00:00 26,3 19,9 13 7 38 21 W 1017,5 20 0,0
12.08.2018 07:00:00 24,8 19,4 29 16 41 22 W 1017,0 - 0,0
12.08.2018 06:00:00 24,7 19,5 24 13 46 25 W 1016,8 - 0,0
12.08.2018 05:00:00 24,9 19,7 29 16 45 25 W 1016,7 15 0,0
12.08.2018 04:00:00 24,9 18,8 30 16 55 30 W 1016,9 - 0,0
12.08.2018 03:00:00 25,1 19,5 44 24 68 37 W 1016,7 - 0,0
12.08.2018 02:00:00 25,3 19,0 36 20 60 33 WSW 1016,9 - 0,0
12.08.2018 01:00:00 25,5 17,9 33 18 69 38 WSW 1017,6 - 0,0
12.08.2018 00:00:00 25,7 17,9 37 20 72 39 WSW 1017,9 - 0,0
11.08.2018 23:00:00 25,8 18,0 41 22 61 33 W 1017,7 - 0,0
11.08.2018 22:00:00 26,2 18,3 38 21 59 32 W 1017,8 - 0,0
11.08.2018 21:00:00 26,3 17,9 34 18 74 40 WSW 1017,1 - 0,0
11.08.2018 20:00:00 26,9 17,7 33 18 68 37 WSW 1017,0 20 0,0
11.08.2018 19:00:00 27,9 17,4 40 22 77 42 WSW 1016,8 - 0,0
11.08.2018 18:00:00 28,6 16,8 36 20 79 42 W 1017,3 - 0,0
11.08.2018 17:00:00 28,9 17,4 49 26 76 41 WSW 1017,0 20 0,0
11.08.2018 16:00:00 28,9 18,4 46 25 66 36 W 1017,6 - 0,0
11.08.2018 15:00:00 29,2 18,6 47 26 72 39 WSW 1018,1 - 0,0
11.08.2018 14:00:00 29,2 18,3 44 24 64 35 WSW 1018,5 20 0,0
11.08.2018 13:00:00 29,3 19,0 44 24 73 39 W 1018,9 - 0,0
11.08.2018 12:00:00 29,0 18,5 47 26 77 42 W 1019,0 - 0,0
11.08.2018 11:00:00 28,5 18,6 37 20 72 39 WSW 1019,0 - 0,0
11.08.2018 10:00:00 27,8 20,4 42 23 67 36 WSW 1018,9 - 0,0
11.08.2018 09:00:00 27,3 20,1 31 17 63 34 WSW 1018,8 - 0,0
11.08.2018 08:00:00 26,5 20,6 32 17 66 35 WSW 1018,6 - 0,0
11.08.2018 07:00:00 25,9 20,2 32 18 65 35 SW 1018,4 - 0,0
11.08.2018 06:00:00 25,6 19,9 32 18 68 37 SW 1018,5 - 0,0
11.08.2018 05:00:00 25,8 19,0 35 19 66 35 SW 1018,6 - 0,0
11.08.2018 04:00:00 26,1 19,2 31 17 - - SW 1019,2 - -
11.08.2018 03:00:00 26,3 19,9 39 21 65 35 WSW 1019,3 - 0,0
11.08.2018 02:00:00 26,4 19,3 30 16 63 34 SW 1019,6 - 0,0
11.08.2018 01:00:00 26,6 18,7 34 18 60 32 WSW 1019,8 - 0,0
11.08.2018 00:00:00 27,0 18,3 27 14 56 30 WSW 1020,1 - 0,0
10.08.2018 23:00:00 26,7 18,6 26 14 48 26 WSW 1020,0 - 0,0
10.08.2018 22:00:00 26,7 19,6 19 11 37 20 WSW 1020,3 - 0,0
10.08.2018 21:00:00 26,6 20,0 18 10 46 25 WSW 1020,0 - 0,0

tt = Température de l'air
td = dewpoint
ff = Vitesse du vent
fx = gusts
dd = Direction du vent
ppp = reduced air pressure
vv = visibility
rr = Quantités de précipitations

stations d'obs. à proximité